Tracking 22454 objects as of 5-Mar-2021
HD Live streaming from Space Station
objects crossing your sky now

DELTA 1 DEB


DELTA 1 DEB is no longer on orbit


NORAD ID: 21340
Int'l Code: 1975-052BJ
Perigee: N/A
Apogee: N/A
Inclination: N/A
Period: N/A
Semi major axis: N/A
RCS: N/A
Launch date: June 12, 1975
Source: United States (US)
Launch site: AIR FORCE WESTERN TEST RANGE (AFWTR)
Decay date: 2013-12-24

Note: This is SATELLITE DEBRIS
aabbcc
Your satellite tracking list
Your tracking list is empty




NASA's NSSDC Master Catalog

Two Line Element Set (TLE):
1 21340U 75052BJ  13357.19886918  .15406228  00000-0  12450+0 0  9997
2 21340 098.3257 149.5222 0021963 009.6178 088.9443 15.64213001100351
Source of the keplerian elements: AFSPC